Погода в Горки

Погода в Горки : погода сейчас, прогноз погоды и архив. Всё, что Вы хотите узнать о погоде в Горки!

Хотите узнать прогноз погоды в Горки? Тогда Вам сюда: Погода в Горки

Поиск расширенной информации на нашем сайте:

Другие новости

Новости СМИ2

Главная страница сайта

Новости сайта

03.07.2017

Напоминаем, что на нашем специализированном сайте Метеоцентр.Азия вы можете получить высокодетализированные автоматические прогнозы погоды по пунктам России, СНГ и мира в авиационном формате (включающие направление и скорость ветра, видимость, явления погоды, количество и форму облачности, нижнюю и верхнюю границу облачности).


Погода в Горки - сегодня

Время (UTC), дата Ветер
(°,м/с) 
Видим.   Явления Облачность Т
(°С)
Тd
(°С)
f(%) Тe
(°С)
Pmin
(гПа)
dP
(гПа)
Po
(мм)
O2
(г/м3)
Тmin Tmax R s Состояние
почвы
21 22.02.18 010 (С) 19000 м    ясно 
-17.1 -19.4 82 -21  1030.7  0.2  753  325           
00 23.02.18 360 (С) 13000 м    ясно 
-23.1 -25.2 83 -28  1031.1  -0.3  752  333           
03 23.02.18 360 (С) 11000 м    ясно 
-23.1 -25.7 79 -28  1030.4  -0.6  752  333        25   
06 23.02.18 030 (СВ) 10 км    9/0 средняя 
[Ac und]
-17.6 -19.7 84 -20  1029.5  -0.3  752  325  -24.3      25  равномерный
сухой снег
100% 
09 23.02.18 040 (СВ) 16000 м    3/0 верхняя 
[Ci fib]
-13.2 -16 79 -17  1028.8  -0.2  752  320           
12 23.02.18 070 (В) 15000 м    3/0 верхняя 
[Ci fib]
-10.4 -15.3 67 -13  1027.8  -0.7  751  316           
15 23.02.18 340 (С) 17000 м    6/0 средняя, верхняя 
[Ac trans|Ci fib]
-12 -16.5 69 -14  1026.8  -1.2  750  318           
18 23.02.18 360 (С) 19000 м    9/8 750 м средняя 
[Sc|Ac und]
-15.6 -18.7 77 -19  1026.9  -0.2  750  322    -10    25   
21 23.02.18 010 (С) 15000 м    4/0 верхняя 
[Ci fib]
-15.6 -17.6 85 -19  1026.4  -0.5  750  322           
00 24.02.18 010 (С) 5000 м  слаб. снег  4/0 средняя 
[As op]
-15.1 -17.1 85 -19  1026.2  -0.2  749  321           
03 24.02.18 010 (С) 4300 м  слаб. снег  6/0 средняя 
[Ac As]
-15.8 -17.7 85 -21  1026  -0.2  749  322      0.0  25   
06 24.02.18 010 (С) 5000 м  слаб. снег  8/0 средняя 
[Ac As]
-16.2 -18.2 85 -21  1027.3  1.2  750  323  -17.3    0.0  25  равномерный
сухой снег
100% 
09 24.02.18 020 (С) 16000 м  {снег}  3/0 верхняя 
[Ci fib]
-12.7 -15.9 77 -17  1027.8  0.8  751  319           
12 24.02.18 010 (С) 20000 м  {снег}  8/8 720 м 
[Sc]
-9.9 -15.9 61 -14  1027.4  -0.1  751  315           
15 24.02.18 360 (С) 16000 м    4/4 600 м 
[Sc]
-11 -17.1 61 -15  1027.8  0.3  751  317      0.0     
21 24.02.18 340 (С) 18000 м    9/0 средняя 
[Ac und]
-16 -19.2 76 -18  1029  751  323           
00 25.02.18 330 (СЗ) 12000 м    9/0 средняя 
[Ac und]
-15.2 -17 86 -17  1029  0.1  752  322           
03 25.02.18 330 (СЗ) 10 км    3/0 средняя 
[Ac trans]
-20.3 -22.3 84 -23  1029.4  -0.2  751  329        25   
06 25.02.18 340 (С) 10 км    4/0 средняя 
[Ac trans]
-17.5 -19.5 84 -20  1029.2  0.1  751  325  -22.1      25  равномерный
сухой снег
100% 
09 25.02.18 360 (С) 13000 м    3/0 средняя 
[Ac trans]
-13.2 -15.2 85 -15  1028.7  751  319           
12 25.02.18 290 (З) 16000 м    6/0 средняя 
[Ac und]
-11.2 -16.4 65 -13  1027.9  -0.6  751  317           
15 25.02.18 300 (СЗ) 20000 м  в посл. час снег  8/0 средняя 
[Ac As]
-14.5 -17.2 80 -18  1027.7  -0.5  751  321      0.0     
18 25.02.18 310 (СЗ) 15000 м  {снег}  9/9 1000 м 
[Sc]
-16.3 -19 80 -20  1028.6  0.6  751  323    -10.3  0.0  25   
21 25.02.18 330 (СЗ) 12000 м  в посл. час снег  6/6 600 м 
[Sc]
-17.4 -19.5 84 -21  1028.6  -0.1  751  325           
00 26.02.18 320 (СЗ) 10 км  {снег}  ясно 
-22.2 -24.3 83 -23  1029  -0.1  751  331           
Время (UTC), дата Ветер
(°,м/с) 
Видим.   Явления Облачность Т
(°С)
Тd
(°С)
f(%) Тe
(°С)
Pmin
(гПа)
dP
(гПа)
Po
(мм)
O2
(г/м3)
Тmin Tmax R s Состояние
почвы

Для получения пояснительной информации подведите курсор к названию столбца.

ПОГОДА в Горки - архив

Всё, что Вы хотите узнать о погоде в Горки - удобно и подробно!

Выберите нужную дату (начиная с 1 января 2015* года) и нажмите кнопку "Найти".
Будут отображены архивные сводки погоды по пункту Горки, начиная с указанной даты.


Отображать данные в формате CSV (для использования в таблицах Excel)


Внимание! Наш архив погоды предназначен исключительно для личного некоммерческого использования в познавательных целях. Если Вам необходимы официальные справки о состоянии погоды (для производственных, юридических, коммерческих и т.п. целей), обращайтесь в органы Росгидромета.

*Примечание: данная дата относится к архиву по метеостанциям СССР (Россия, СНГ, Балтия).
Архив по метеостанциям Зарубежной Европы и Азии (кроме Китая) хранится 10 дней, по другим регионам земного шара (Китай, Африка, Америка, Австралия, Океания) - 1 день.

Горки - район местоположения метеостанции


Название, широта, долгота, высота метеостанции:
Горки 54.3°ш. 30.9°д. 205 м над ур. моря [Беларусь]

Дополнительная информация

В oтличие oт бoльшинства пoгoдных сайтoв мы публикуем пoдрoбную метеoинфoрмацию в детальнoм прoфессиoнальнoм фoрмате.

Характеристики температуры и влажнoсти вoздуха измеряются на высoте 2 м в тени вдали oт зданий и деревьев.
Скoрoсть ветра измеряется на высoте 10 м (на урoвне рoста челoвека скoрoсть ветра ниже в 1.5-2 раза). Если метеoстанция нахoдится в гoрoде или в лесу, тo скoрoсть ветра занижена на 2-4 м/с пo сравнению с oткрытым местoм. Скoрoсть ветра над акватoриями крупных рек и oзёр, а также на вершинах хoлмoв на 2-5 м/с выше, чем в oбычных услoвиях.
Атмoсфернoе давление в разных тoчках местнoсти мoжет значительнo oтличаться oт давления на метеoстанции, в зависимoсти oт услoвий рельефа (при пoдъёме на 10 м давление пoнижается примернo на 1 мм рт.ст.).